{"data":{"norad_id":57201,"epoch":"2026-09-19T21:33:05.738976Z","epoch_age_seconds":66308,"freshness":"FRESH","line1":"1 57201U 23091AM  26262.89798309  .00015343  00000+0  36948-3 0  9999","line2":"2 57201  97.4988 335.5383 0007452  94.7279 265.4819 15.41336119179329","mean_motion":15.41336119,"eccentricity":0.0007452,"inclination_deg":97.4988,"raan_deg":335.5383,"arg_perigee_deg":94.7279,"mean_anomaly_deg":265.4819,"bstar":0.00036948,"rev_number":17932,"period_min":93.425436687635,"perigee_km":437.08249220979,"apogee_km":447.24747028264,"semimajor_km":6820.3019812462,"source":"CELESTRAK","updated_at":"2026-09-20T09:00:48.036800Z"}}